カタログに戻る

STARLINK-5691

運用中通信VLEO
NORAD 55478·PAYLOAD·🇺🇸 United States

打ち上げ Feb 2, 2023 から Cape Canaveral Space Force Station

Loading…

次のパス (今後24時間)

TLE

最新Source: CelesTrak SupGP

元期: Sep 15, 2026, 01:24 UTC

1 55478C 23015AF  26258.05881944  .00017955  00000+0  65043-3 0  2587
2 55478  43.0033 328.6683 0001780 274.2373 143.5067 15.27563209    11

AllMySatでSTARLINK-5691をリアルタイム追跡

Download on the App Store